Wind_Speed
25 25 25 25 23 23 24 24 26 26 25 23 21 21 21 21 22 21 21 20 20 20 20 19 19 19 19 20 19 19 18 17 18 18 18 18 17 17 17 18 17 17 18 18
26 26 27 26 25 25 25 25 25 25 25 24 23 23 23 23 23 23 23 22 23 23 23 23 22 21 20 20 19 19 19 19 19 19 19 20 19 19 19 18 19 19 19 20
27 26 27 27 25 25 25 24 23 24 23 23 23 23 24 24 24 25 26 25 24 25 24 24 24 23 21 21 20 19 20 20 20 20 21 21 21 21 21 21 20 20 21 21
28 28 29 26 26 25 25 26 25 25 25 23 23 24 26 26 26 26 26 26 26 25 25 24 24 23 22 22 21 21 21 22 22 22 21 22 22 22 23 22 22 22 22 22
28 29 28 26 26 25 25 26 26 26 26 25 25 26 27 26 26 25 25 26 27 26 25 25 24 23 23 23 23 22 22 23 24 23 23 23 23 23 23 23 23 23 23 23
29 29 28 25 25 25 26 27 26 26 26 27 27 27 27 27 26 26 26 26 26 26 26 26 25 24 24 25 24 24 24 24 25 26 25 25 24 24 24 24 23 24 24 24
29 29 28 26 26 26 28 27 26 27 26 26 27 27 27 27 27 27 27 26 26 27 27 26 26 26 26 26 27 27 26 26 26 26 26 25 25 25 25 25 24 24 25 25
28 28 28 27 26 27 27 27 27 27 28 27 27 28 29 29 29 28 28 28 28 28 29 28 28 28 27 28 28 28 28 28 27 26 26 26 25 25 25 25 25 25 26 26
26 26 26 27 27 26 27 28 27 28 28 29 28 28 28 29 30 29 29 29 30 30 30 31 30 30 30 29 29 29 28 28 27 27 27 27 27 27 26 26 26 26 26 26
25 25 26 26 26 27 27 28 28 29 29 30 30 29 29 30 29 29 29 30 30 30 31 31 31 31 31 30 30 30 29 29 29 29 28 28 28 27 27 27 27 27 27 27
26 25 25 27 27 28 28 28 28 29 29 29 30 29 29 29 29 28 28 30 30 30 30 30 30 31 32 32 31 31 31 30 29 29 29 29 29 29 28 27 27 27 26 27
25 25 25 25 26 26 27 27 28 28 28 29 29 29 29 30 30 30 29 29 30 31 31 31 31 32 33 32 32 31 30 30 30 30 29 29 28 28 28 28 28 28 28 28
24 24 24 24 25 26 26 27 27 27 28 28 29 29 29 29 29 30 30 30 31 32 33 32 33 32 31 31 31 31 31 31 31 31 31 30 30 30 30 30 29 29 29 29
25 24 24 24 24 25 26 25 26 26 27 28 28 27 28 28 29 30 30 31 31 32 33 33 33 32 32 31 31 31 31 31 31 31 31 30 30 30 29 29 29 30 30 29
25 25 25 24 24 24 25 25 26 26 27 27 27 27 27 28 29 30 30 31 31 32 32 32 32 31 31 30 31 30 31 30 30 30 31 30 31 30 30 30 30 31 31 31
24 24 24 25 24 24 25 26 26 26 27 27 27 27 28 29 30 30 31 31 32 32 32 32 32 31 30 30 29 30 31 30 30 30 30 30 31 31 31 31 31 32 32 31
24 24 24 25 25 25 24 25 25 25 26 26 26 26 27 28 29 29 28 28 29 29 30 31 31 31 31 30 30 31 31 31 31 32 32 32 32 32 32 32 32 32 31 31
24 23 23 24 23 24 24 25 24 25 25 25 26 26 26 27 27 26 26 26 28 29 29 30 30 30 30 30 31 32 32 32 32 32 32 33 33 33 32 32 32 32 31 31
21 21 22 22 22 23 23 23 24 25 25 24 24 24 25 26 26 27 26 26 27 28 28 29 29 29 29 30 31 32 32 32 33 33 33 33 33 33 33 33 32 32 31 31
20 21 22 22 22 22 23 23 23 24 24 23 23 24 24 25 26 26 25 25 25 26 26 27 27 28 28 29 30 31 31 32 32 33 33 33 33 33 33 32 32 32 32 32
21 21 22 22 21 22 22 23 23 23 23 23 23 23 24 24 24 24 25 24 25 26 26 27 27 27 28 29 29 29 29 30 30 31 31 31 32 32 32 31 31 32 32 31
20 21 22 22 22 22 22 22 22 22 22 21 22 22 22 22 22 23 23 24 24 24 25 25 25 26 26 27 27 27 28 29 29 29 29 30 30 31 31 30 30 31 31 31
20 20 21 21 22 22 22 22 22 21 21 21 21 21 22 22 23 23 24 24 24 25 25 25 25 25 24 25 25 26 27 28 28 28 28 28 28 29 29 29 29 30 31 31
19 20 21 21 21 21 21 20 19 20 20 20 20 21 22 22 22 23 23 24 24 24 24 24 24 23 23 23 24 24 25 26 25 26 26 26 27 27 28 29 30 30 31 31
20 20 21 21 21 20 20 19 19 19 19 20 21 21 22 22 22 23 23 24 23 23 23 23 23 22 22 21 22 23 23 24 24 24 24 25 25 26 26 27 28 29 29 29
19 19 19 19 19 19 19 18 18 18 19 20 20 20 20 21 21 22 22 22 22 23 23 23 23 22 22 22 22 22 22 22 23 24 24 24 25 25 26 27 27 28 28 28
17 17 17 18 17 17 17 16 17 18 18 19 19 19 20 20 20 21 21 21 21 22 22 22 22 22 22 22 22 23 23 23 24 24 24 24 24 24 25 26 27 27 27 27
Wind_Direction
248 248 250 252 254 256 259 263 266 264 264 260 262 268 271 275 275 276 278 279 281 283 281 281 281 282 285 287 287 285 281 279 281 285 285 285 285 284 286 286 287 289 289 291
247 247 249 252 254 256 258 263 267 266 263 265 266 271 275 276 275 275 275 279 281 280 278 279 279 282 284 283 282 282 285 285 284 284 284 284 285 284 284 284 286 287 288 287
250 251 250 250 253 255 257 260 265 268 267 266 265 269 274 274 277 276 275 277 280 280 278 278 282 283 280 283 285 284 286 287 284 282 283 282 282 282 282 284 287 286 286 286
253 252 251 250 251 253 254 258 261 265 267 267 266 266 269 271 277 278 279 278 279 281 280 280 282 284 283 284 285 285 285 284 283 281 280 280 280 282 282 282 285 288 288 287
253 253 253 249 249 252 254 257 261 264 266 266 270 269 269 271 275 277 277 279 281 281 280 280 280 281 281 282 283 283 283 283 282 279 278 278 279 280 280 281 282 285 288 287
253 255 254 251 250 251 255 259 263 265 266 268 269 271 271 270 272 274 275 276 277 278 278 276 277 279 280 281 281 282 282 282 281 280 278 276 275 276 278 279 282 284 286 287
253 256 257 255 253 255 256 259 262 265 267 267 268 270 271 271 271 272 274 276 278 277 277 276 276 277 278 278 279 279 281 281 282 280 279 276 274 275 277 278 280 283 285 286
254 256 259 258 256 257 259 260 264 267 267 267 269 270 272 272 272 271 274 276 278 277 276 275 275 275 276 277 278 278 279 280 280 279 278 276 275 276 277 279 280 283 285 286
256 259 260 259 258 258 260 262 264 265 268 272 271 271 274 273 272 272 274 275 276 275 275 276 275 275 276 277 278 278 278 277 277 278 277 276 275 277 277 278 281 283 285 286
257 258 258 257 259 260 263 265 267 268 270 270 272 273 273 271 272 271 271 272 274 275 275 275 275 275 275 276 276 276 275 276 276 276 275 277 277 278 277 278 280 283 284 284
258 260 260 260 261 261 263 265 267 270 270 270 273 274 273 273 273 274 274 273 272 273 274 275 276 276 275 274 275 274 274 275 275 273 273 275 276 277 278 277 279 281 283 284
259 261 262 263 263 264 266 269 270 271 271 272 274 276 274 273 272 274 275 275 273 273 274 276 276 278 276 275 274 273 273 272 272 272 271 271 273 275 277 278 280 280 281 282
260 263 266 267 269 270 271 271 271 271 272 274 276 276 275 274 274 274 274 274 275 275 274 274 276 277 277 275 274 274 273 272 272 272 271 272 274 275 276 277 279 280 280 280
262 265 267 269 270 271 273 274 273 273 274 277 278 279 278 277 277 277 277 276 276 276 276 277 277 277 277 275 275 275 275 276 275 273 276 275 275 274 274 276 279 280 281 282
262 264 267 270 271 273 275 276 277 277 277 278 279 280 280 280 280 279 279 278 276 276 277 278 278 278 277 277 276 276 276 277 277 276 276 276 276 277 277 279 281 283 283 283
262 265 266 268 269 273 276 276 277 278 278 277 277 279 281 282 282 283 280 278 275 275 276 277 278 278 279 279 275 274 275 276 277 277 277 277 278 279 280 281 282 283 283 283
263 263 265 267 269 271 273 275 276 277 278 278 278 278 280 282 283 283 281 279 277 276 276 278 279 279 279 279 277 276 276 275 276 277 277 277 277 279 282 284 285 285 285 285
261 264 266 269 270 270 272 273 274 275 276 277 278 277 277 279 281 283 282 280 278 278 279 278 278 277 278 277 276 275 275 274 274 275 277 278 278 280 282 283 284 284 283 284
262 266 269 271 271 272 272 273 275 276 277 278 280 280 278 278 280 282 283 282 281 281 281 281 280 279 279 278 276 276 276 276 276 276 277 277 278 279 280 281 282 282 282 283
265 268 270 271 271 275 277 277 278 278 279 280 280 282 283 283 283 283 283 282 282 283 283 282 281 281 282 282 280 279 278 277 277 277 277 278 278 278 280 280 280 282 282 283
267 270 274 275 276 279 277 278 279 280 279 280 281 283 285 286 286 284 282 283 284 283 284 283 282 283 283 282 281 280 279 278 278 278 279 279 279 279 280 281 281 282 283 284
267 270 274 276 278 280 280 280 283 282 280 279 281 283 286 287 288 287 287 286 286 285 284 287 288 287 284 283 283 282 281 280 279 279 280 280 280 279 281 281 281 283 285 285
266 270 275 277 279 281 282 283 284 285 283 283 282 282 284 286 287 288 289 289 289 289 289 291 290 289 287 286 285 284 283 283 282 281 282 282 281 280 281 282 283 285 286 287
269 272 274 277 280 281 284 285 284 284 284 284 285 285 285 287 289 290 292 292 293 292 291 291 291 290 289 287 287 287 287 286 284 283 283 283 282 282 283 284 285 286 287 286
271 272 275 278 280 282 283 283 283 285 285 285 285 286 287 289 291 294 294 295 295 293 291 290 290 291 291 291 290 289 288 288 288 289 287 286 285 284 284 285 286 287 288 287
271 273 275 277 278 277 279 280 283 286 288 289 287 286 289 292 292 293 293 293 296 297 294 292 291 290 290 291 292 294 293 292 292 291 290 289 288 286 286 287 288 289 290 290
274 277 279 278 278 278 280 283 286 289 290 290 290 289 290 292 294 294 294 296 297 298 297 295 292 292 293 293 294 297 299 298 296 293 291 290 289 289 289 290 291 291 291 291
Height
5867 5868 5869 5870 5871 5872 5872 5872 5872 5872 5872 5873 5873 5874 5873 5873 5872 5872 5872 5871 5871 5871 5870 5869 5868 5867 5866 5865 5864 5863 5862 5861 5860 5859 5857 5856 5855 5854 5853 5852 5851 5850 5848 5847
5860 5862 5862 5863 5864 5865 5865 5865 5865 5865 5866 5867 5867 5868 5867 5867 5866 5866 5866 5865 5865 5865 5864 5863 5862 5861 5860 5859 5858 5857 5856 5855 5854 5853 5852 5851 5849 5848 5847 5846 5845 5844 5842 5841
5854 5855 5856 5857 5859 5858 5858 5858 5859 5858 5860 5860 5860 5861 5861 5861 5860 5860 5859 5859 5859 5858 5858 5857 5855 5854 5853 5853 5853 5851 5850 5849 5847 5846 5846 5844 5843 5842 5841 5840 5838 5837 5836 5835
5847 5849 5849 5853 5851 5851 5851 5852 5852 5852 5853 5853 5854 5854 5854 5854 5854 5853 5853 5852 5852 5851 5851 5850 5849 5848 5847 5847 5846 5845 5844 5842 5841 5839 5838 5838 5837 5836 5834 5833 5832 5830 5829 5828
5839 5839 5841 5843 5844 5845 5845 5845 5845 5845 5846 5846 5846 5846 5847 5847 5846 5846 5846 5846 5845 5844 5844 5843 5842 5841 5841 5840 5839 5838 5837 5835 5834 5832 5831 5830 5830 5828 5828 5827 5825 5824 5823 5821
5831 5832 5833 5837 5838 5837 5838 5838 5838 5838 5839 5839 5839 5839 5839 5839 5838 5838 5839 5838 5838 5837 5836 5835 5835 5834 5834 5833 5832 5831 5830 5828 5827 5825 5825 5824 5822 5821 5820 5819 5818 5817 5815 5814
5823 5824 5826 5829 5830 5831 5831 5832 5831 5831 5832 5832 5831 5832 5832 5831 5831 5831 5830 5830 5830 5829 5828 5827 5827 5826 5826 5826 5825 5823 5822 5821 5820 5818 5817 5816 5815 5814 5813 5812 5811 5810 5808 5807
5817 5818 5821 5821 5822 5823 5823 5823 5824 5824 5824 5823 5823 5823 5822 5822 5822 5822 5822 5821 5821 5820 5820 5819 5819 5818 5818 5817 5816 5815 5814 5813 5812 5810 5809 5808 5807 5807 5805 5804 5803 5802 5801 5799
5811 5813 5813 5813 5813 5814 5815 5816 5816 5816 5816 5815 5814 5814 5813 5813 5812 5812 5813 5812 5812 5811 5810 5810 5810 5809 5809 5808 5807 5806 5806 5805 5803 5802 5801 5800 5799 5799 5797 5796 5795 5794 5792 5791
5803 5804 5805 5805 5806 5807 5807 5808 5808 5807 5807 5806 5805 5804 5804 5803 5803 5803 5803 5802 5802 5801 5801 5801 5800 5800 5800 5799 5798 5797 5797 5796 5795 5794 5793 5792 5791 5790 5789 5788 5787 5786 5784 5783
5796 5797 5797 5798 5799 5799 5800 5800 5799 5799 5798 5797 5797 5795 5794 5793 5792 5792 5792 5792 5792 5792 5792 5791 5790 5790 5790 5789 5788 5788 5787 5786 5786 5785 5784 5783 5782 5781 5780 5779 5778 5777 5776 5774
5790 5790 5790 5791 5791 5792 5791 5791 5791 5791 5790 5789 5788 5787 5786 5785 5784 5784 5783 5783 5782 5782 5782 5781 5780 5780 5779 5779 5778 5777 5777 5776 5776 5776 5774 5773 5773 5772 5771 5771 5769 5768 5767 5766
5782 5783 5783 5783 5783 5783 5783 5783 5782 5782 5781 5780 5780 5779 5777 5776 5776 5775 5774 5773 5773 5772 5772 5771 5771 5770 5769 5769 5768 5767 5766 5766 5766 5765 5764 5763 5763 5763 5763 5762 5760 5759 5758 5757
5775 5775 5775 5775 5775 5775 5775 5774 5774 5774 5773 5772 5771 5769 5768 5767 5767 5766 5765 5764 5764 5763 5762 5761 5761 5760 5760 5759 5758 5757 5757 5756 5756 5755 5754 5754 5753 5753 5752 5752 5751 5750 5749 5747
5767 5767 5767 5767 5767 5767 5767 5766 5766 5765 5764 5763 5762 5761 5760 5759 5758 5757 5756 5755 5754 5754 5753 5752 5751 5751 5750 5749 5749 5748 5748 5747 5747 5746 5745 5744 5744 5743 5743 5742 5741 5740 5739 5737
5760 5760 5760 5760 5759 5759 5759 5758 5758 5757 5756 5755 5754 5753 5752 5751 5749 5748 5747 5745 5745 5744 5744 5743 5742 5742 5740 5740 5739 5739 5739 5738 5737 5737 5736 5735 5734 5734 5733 5732 5731 5729 5728 5727
5752 5752 5752 5752 5751 5751 5751 5751 5750 5749 5748 5747 5746 5745 5744 5742 5740 5738 5737 5736 5735 5735 5734 5733 5733 5732 5731 5730 5729 5729 5729 5728 5728 5727 5726 5725 5724 5723 5723 5722 5721 5720 5718 5717
5745 5744 5744 5744 5744 5744 5744 5743 5742 5741 5740 5739 5738 5737 5735 5734 5733 5730 5729 5727 5726 5725 5725 5724 5723 5722 5721 5720 5720 5719 5718 5718 5717 5717 5716 5715 5714 5713 5712 5712 5711 5709 5708 5707
5737 5737 5737 5737 5737 5736 5736 5735 5734 5733 5732 5731 5730 5729 5727 5726 5724 5723 5721 5719 5718 5717 5716 5715 5713 5712 5712 5711 5710 5709 5708 5708 5707 5706 5705 5705 5704 5703 5702 5701 5700 5699 5697 5696
5731 5731 5730 5730 5729 5729 5728 5727 5726 5725 5724 5723 5722 5721 5719 5717 5716 5715 5713 5711 5710 5709 5707 5706 5704 5703 5702 5701 5700 5699 5698 5697 5697 5696 5695 5694 5694 5693 5692 5691 5690 5688 5687 5685
5724 5724 5723 5723 5722 5721 5720 5719 5719 5718 5716 5715 5714 5712 5711 5709 5708 5707 5705 5704 5703 5700 5698 5696 5695 5694 5693 5692 5691 5690 5689 5688 5687 5686 5685 5684 5683 5682 5681 5680 5679 5678 5676 5675
5717 5717 5717 5716 5716 5714 5713 5712 5711 5710 5709 5707 5706 5705 5703 5702 5701 5699 5698 5696 5695 5692 5690 5688 5687 5685 5684 5683 5682 5681 5680 5679 5678 5676 5675 5674 5673 5672 5671 5670 5669 5667 5666 5665
5710 5710 5710 5709 5709 5707 5706 5705 5704 5703 5702 5700 5699 5698 5697 5695 5694 5692 5691 5689 5687 5684 5682 5680 5679 5677 5676 5675 5674 5673 5671 5670 5669 5667 5666 5665 5664 5663 5662 5660 5659 5658 5656 5654
5703 5703 5703 5702 5702 5701 5700 5698 5697 5696 5695 5693 5692 5691 5690 5688 5687 5685 5683 5681 5679 5676 5674 5673 5672 5670 5669 5667 5666 5665 5663 5662 5660 5659 5658 5656 5655 5654 5652 5651 5650 5648 5646 5644
5697 5697 5697 5696 5695 5695 5693 5692 5691 5690 5689 5687 5686 5684 5683 5681 5680 5678 5676 5674 5672 5670 5668 5667 5665 5664 5662 5661 5659 5658 5656 5654 5652 5651 5649 5648 5646 5645 5644 5642 5641 5639 5637 5635
5691 5691 5691 5690 5689 5688 5688 5687 5686 5684 5683 5681 5679 5678 5676 5675 5673 5671 5669 5668 5666 5664 5662 5660 5659 5657 5656 5654 5653 5651 5649 5647 5645 5643 5642 5640 5639 5637 5636 5634 5632 5630 5628 5626
5686 5686 5685 5685 5684 5683 5682 5681 5680 5679 5677 5675 5674 5672 5671 5669 5667 5665 5663 5662 5660 5658 5656 5654 5652 5651 5649 5647 5645 5644 5642 5640 5638 5636 5635 5633 5631 5630 5628 5626 5624 5622 5620 5617